カタログに戻る

STARLINK-31729

運用中通信VLEO
NORAD 59610·PAYLOAD·🇺🇸 United States

打ち上げ Apr 28, 2024 から Cape Canaveral Space Force Station

Loading…

次のパス (今後24時間)

TLE

最新Source: CelesTrak SupGP

元期: Sep 14, 2026, 20:53 UTC

1 59610C 24080K   26257.87062500  .00054636  00000+0  19761-2 0  2571
2 59610  43.0046  46.2971 0001686 285.5955  37.6551 15.27596781    18

AllMySatでSTARLINK-31729をリアルタイム追跡

Download on the App Store